Find OneWeb SL0436

NORAD ID: 51633 Int'l Des: 2022-012 Owner: ONEWEBN Country: UK Constellation: oneweb operational
LEOCIRCULARPOLARONEWEB_TYPE

リアルタイム位置

3D地球を読み込み中...

OneWeb SL0436について

説明を読み込み中...

次回通過

Passes for default location (London). Set your location on the main map for personalized predictions.

高度履歴

Loading altitude history...

軌道要素

1 51633U 22012M 26124.39703704 .00000071 00000-0 14910-3 0 9999
2 51633 87.9185 14.5457 0001890 74.3248 285.8092 13.17648371207914
Epoch: May 4, 2026 • Age: 19 hours

現在のステータス

高度 1220.1 km
速度 7.24 km/s
衛星直下点 -65.34°S, 99.1°W
打ち上げ日 Feb 10, 2022
運用期間 4.2 years
タイプ internet

技術仕様

分類 Payload
質量 148.00 kg
乾燥質量 140.00 kg
総質量 148.00 kg
長さ 1.30 m
直径 1.00 m
スパン 5.00 m
形状 Trapezoid+2 pan
製造者 ONEWUS
バスタイプ ARROW
フェーズステータス In Orbit
所有者/国 ONEWEBN/UK

Most Searched